Danmarkshavn

KL  EN  DA
ASIAQ
Weather Now GREENLAND SURVEY
Updated [WGT/WGST] Temperature [°C] Wind [m/s] Air pressure [hPa] Relative humidity [%] Precipitation [mm]
Present Wind chill Speed Max
26.09 19:00-5,40,0n/a2,0102079n/a
26.09 18:00-5,30,0n/a3,0102081n/a
26.09 17:00-5,00,0n/a3,0102080n/a
26.09 16:00-4,80,0n/a6,0102079n/a
26.09 15:00-4,60,0n/a8,0102076n/a
26.09 14:00-4,30,0n/a9,0102171n/a
26.09 13:00-4,60,0n/a9,0102174n/a
26.09 12:00-4,70,0n/a10,0102178n/a
26.09 11:00-4,50,0n/a10,0102073n/a
26.09 10:00-4,40,0n/a10,0102073n/a
26.09 09:00-4,50,0n/a9,0102075n/a
26.09 08:00-4,60,0n/a10,0102078n/a
26.09 07:00-4,70,0n/a8,0102075n/a
26.09 06:00-4,50,0n/a8,0102081n/a
26.09 05:00-4,40,0n/a6,0101977n/a
26.09 04:00-4,20,0n/a6,0101977n/a
26.09 03:00-4,10,0n/a4,0101974n/a
26.09 02:00-3,90,0n/a3,0101876n/a
26.09 01:00-3,90,0n/a4,0101874n/a
26.09 00:00-3,70,0n/a4,0101877n/a
25.09 23:00-3,40,0n/a9,0101874n/a
25.09 22:00-3,20,0n/a11,0101776n/a
25.09 21:00-3,60,0n/a12,0101780n/a
25.09 20:00-3,60,0n/a13,01016770,0
25.09 19:00-3,60,0n/a11,01016790,1
Position: (76.769444,-18.668056)

[Back]